Regional Weather Roundup
Issued by NWS

Home | Current Version | Previous Version | Graphics & Text | Print | Product List | Glossary On
Versions: 1 2 3 4 5 6 7 8 9 10 11 12 13 14 15 16 17 18 19 20 21 22 23 24 25 26 27
000
ASUS45 KSLC 182210
RWRUT

UTAH REGIONAL WEATHER ROUNDUP
NATIONAL WEATHER SERVICE SALT LAKE CITY UT
400 PM MDT WED OCT 18 2017

UTZ001>011-023>025-182300-

NORTHERN UTAH

CITY           SKY/WX    TMP DP  RH WIND       PRES   REMARKS
BRIGHAM CITY   SUNNY     70  22  16 SW3       30.14F
HILL AFB       SUNNY     67  24  19 NW6       30.15F
LOGAN          SUNNY     72  22  15 CALM      30.13F
OGDEN          SUNNY     69  28  21 VRB5      30.14F
SALT LAKE CITY MOSUNNY   71  29  21 NW7       30.13F
TOOELE VALLEY  SUNNY     64  30  27 N5        30.15F
WENDOVER       SUNNY     61  22  22 E6        30.14F
WEST JORDAN    SUNNY     66  32  28 NW3       30.16S

$$

UTZ011>015-024>027-182300-

CENTRAL/NORTHEAST UTAH

CITY           SKY/WX    TMP DP  RH WIND       PRES   REMARKS
PROVO AIRPORT  SUNNY     65  24  21 W5        30.14F
MOAB/CANYONLAN MOSUNNY   74  11   9 CALM      30.13F
DELTA          MOSUNNY   70  16  12 SE5       30.14F
PRICE          SUNNY     69  15  12 S3        30.20F
RICHFIELD      SUNNY     72  16  12 CALM      30.15F
ROOSEVELT      SUNNY     68  14  12 CALM      30.19F
VERNAL         SUNNY     69  11  10 VRB3      30.17F

$$

UTZ013>016-019>022-027-182300-

SOUTHERN UTAH

CITY           SKY/WX    TMP DP  RH WIND       PRES   REMARKS
BRYCE CANYON   CLOUDY    65  16  15 VRB3      30.28S
CEDAR CITY     CLOUDY    68  19  15 W3        30.16F
MILFORD        MOSUNNY   71  13  10 NE9       30.13F
ST GEORGE      CLEAR     73  24  16 CALM      30.03F
HANKSVILLE     PTSUNNY   72  16  12 CALM      30.15F
KANAB          SUNNY     77  19  11 SW6       30.15F
BLANDING         N/A     69  16  12 CALM      30.26F

$$

REGIONAL REPORTS     COLORADO/ARIZONA

CITY           SKY/WX    TMP DP  RH WIND       PRES   REMARKS
CRAIG, CO      SUNNY     71   1   6 W7        30.20F
GRAND JUNCTION CLOUDY    73  13  10 W5        30.15F
RIFLE, CO      SUNNY     72   4   7 W5        30.17F
MONTROSE, CO   CLOUDY    70  17  13 N7        30.19F
CORTEZ, CO     CLOUDY    74  23  15 W8        30.19F
COLORADO CITY    N/A     79  23  12 N5        30.14F
PAGE, AZ       CLOUDY    74  22  14 NE6       30.09F
GRAND CANYON   CLOUDY    70  27  20 S10       30.23F
KINGMAN, AZ    CLOUDY    82  26  13 SW6       30.04F
FLAGSTAFF, AZ  CLOUDY    68  26  20 SW13      30.25S

$$

REGIONAL REPORTS    NEVADA/IDAHO/WYOMING

CITY           SKY/WX    TMP DP  RH WIND       PRES   REMARKS
LAS VEGAS, NV  PTSUNNY   81  11   7 CALM      29.98F
ELY, NY        SUNNY     72  19  13 NE7       30.16F
ELKO, NV       SUNNY     72   7   8 VRB3      30.12F
POCATELLO, ID  CLOUDY    70  27  20 W12       30.12F
BURLEY, ID     SUNNY     72  25  17 N6        30.07F
FORT BRIDGER,    N/A     68  10  10 NW7       30.25F
EVANSTON, WY   SUNNY     66   9  10 SW10      30.24S
ROCK SPRINGS,  SUNNY     64   3   9 W10       30.22F
KEMMERER, WY   SUNNY     61  12  15 NW12      30.25F

$$




USA.gov is the U.S. government's official web portal to all federal, state and local government web resources and services.